Location: Shenandoah County Park
(38.9356°N, 78.4524°W)
Time: 05:49:53
(UTC-04:00)

Transit 2A - Pass Details

Date: 20 June 2024
Orbit: 591 x 960 km, 66.7° (Epoch: 23 July)

Event Time Altitude Azimuth Distance (km) Brightness Sun altitude
Rises 02:48:39 0° 322° (NW) 3,573 9.8 -23.9°
Reaches altitude 10° 02:51:21 10° 314° (NW) 2,658 9.0 -23.7°
Enters shadow 02:56:48 35° 254° (WSW) 1,492 7.1 -23.3°
